Clinton, OK

6:59 PM CDT on August 21, 2017 (GMT -0500)
Clinton Municipal

Weather History for KCLK - October, 2013

Change the Weather History Date:

Wednesday, October 23, 2013

  Actual Average (KCSM) Record (KCSM)
Temperature  
Mean Temperature 60 °F -  
Max Temperature 82 °F 68 °F 90 °F (2003)
Min Temperature 39 °F 46 °F 32 °F (2005)
Degree Days  
Heating Degree Days 4    
Growing Degree Days 10 (Base 50)    
Moisture  
Dew Point 37 °F    
Average Humidity 53    
Maximum Humidity 87    
Minimum Humidity 12    
Precipitation  
Precipitation 0.00 in - - ()
Sea Level Pressure  
Sea Level Pressure 30.08 in    
Wind  
Wind Speed 6 mph (ESE)    
Max Wind Speed 18 mph    
Max Gust Speed 24 mph    
Visibility 10 miles    
Events      
Averages and records for this station are not official NWS values.
T = Trace of Precipitation, MM = Missing Value Source: NWS Daily Summary

Daily Weather History Graph

Daily Weather History Graph

Search for Another Location

Airport or City:

Trip Planner

Search our weather history database for the weather conditions in past years. The results will help you decide how hot, cold, wet, or windy it might be!

Date:

Astronomy

Oct. 23, 2013 Rise Set
Actual Time 7:49 AM CDT 6:50 PM CDT
Civil Twilight 7:23 AM CDT 7:15 PM CDT
Nautical Twilight 6:53 AM CDT 7:45 PM CDT
Astronomical Twilight 6:24 AM CDT 8:15 PM CDT
Moon 10:27 PM CDT (10/23) 12:02 PM CDT (10/23)
Length of Visible Light 11h 52m
Length of Day
11h 00m
Waning Gibbous, 79% of the Moon is Illuminated
Oct 23
Waning Gibbous
Oct 26
Last Quarter
Nov 3
New
Nov 9
First Quarter
Nov 17
Full

Hourly Weather History & Observations

Time (CDT) Temp. Windchill Dew Point Humidity Pressure Visibility Wind Dir Wind Speed Gust Speed Precip Events Conditions
12:15 AM 48.2 °F - 39.2 °F 71% 30.11 in 10.0 mi Calm Calm - N/A   Clear
12:35 AM 46.4 °F 44.3 °F 39.2 °F 76% 30.12 in 10.0 mi NNE 4.6 mph - N/A   Clear
12:55 AM 46.4 °F - 37.4 °F 71% 30.12 in 7.0 mi Calm Calm - N/A   Scattered Clouds
1:15 AM 50.0 °F - 37.4 °F 62% 30.12 in 10.0 mi NE 4.6 mph - N/A   Clear
1:35 AM 46.4 °F 41.9 °F 39.2 °F 76% 30.12 in 2.5 mi NE 9.2 mph - N/A   Haze
1:55 AM 48.2 °F - 37.4 °F 66% 30.12 in 2.0 mi ENE 8.1 mph - N/A   Haze
2:15 AM 46.4 °F 44.3 °F 39.2 °F 76% 30.12 in 3.0 mi NE 4.6 mph - N/A   Haze
2:35 AM 44.6 °F - 37.4 °F 76% 30.12 in 5.0 mi Calm Calm - N/A   Haze
2:55 AM 46.4 °F - 37.4 °F 71% 30.12 in 10.0 mi Calm Calm - N/A   Clear
3:15 AM 42.8 °F - 37.4 °F 81% 30.12 in 10.0 mi Calm Calm - N/A   Clear
3:35 AM 44.6 °F - 37.4 °F 76% 30.12 in 10.0 mi Calm Calm - N/A   Clear
3:55 AM 44.6 °F 43.1 °F 37.4 °F 76% 30.12 in 10.0 mi NNW 3.5 mph - N/A   Clear
4:15 AM 42.8 °F - 37.4 °F 81% 30.12 in 10.0 mi Calm Calm - N/A   Clear
4:35 AM 41.0 °F - 35.6 °F 81% 30.12 in 10.0 mi Calm Calm - N/A   Clear
4:55 AM 41.0 °F - 37.4 °F 87% 30.12 in 10.0 mi Calm Calm - N/A   Clear
5:15 AM 41.0 °F - 35.6 °F 81% 30.12 in 10.0 mi Calm Calm - N/A   Clear
5:35 AM 41.0 °F 39.0 °F 35.6 °F 81% 30.13 in 10.0 mi West 3.5 mph - N/A   Clear
5:55 AM 39.2 °F - 35.6 °F 87% 30.13 in 10.0 mi Calm Calm - N/A   Clear
6:15 AM 41.0 °F 39.0 °F 35.6 °F 81% 30.13 in 10.0 mi NE 3.5 mph - N/A   Clear
6:35 AM 41.0 °F 36.4 °F 35.6 °F 81% 30.12 in 10.0 mi NE 6.9 mph - N/A   Clear
6:55 AM 41.0 °F 37.1 °F 37.4 °F 87% 30.12 in 10.0 mi NNE 5.8 mph - N/A   Clear
7:15 AM 42.8 °F 39.3 °F 37.4 °F 81% 30.12 in 10.0 mi NE 5.8 mph - N/A   Clear
7:35 AM 41.0 °F 36.4 °F 35.6 °F 81% 30.12 in 10.0 mi ENE 6.9 mph - N/A   Clear
7:55 AM 42.8 °F 39.3 °F 37.4 °F 81% 30.13 in 10.0 mi ENE 5.8 mph - N/A   Clear
8:15 AM 44.6 °F 41.4 °F 37.4 °F 76% 30.13 in 10.0 mi ENE 5.8 mph - N/A   Clear
8:35 AM 44.6 °F 41.4 °F 37.4 °F 76% 30.14 in 10.0 mi NE 5.8 mph - N/A   Clear
8:55 AM 44.6 °F 43.1 °F 37.4 °F 76% 30.14 in 10.0 mi NE 3.5 mph - N/A   Clear
9:15 AM 46.4 °F 45.2 °F 39.2 °F 76% 30.14 in 4.0 mi ENE 3.5 mph - N/A   Haze
9:35 AM 50.0 °F - 41.0 °F 71% 30.14 in 10.0 mi ESE 3.5 mph - N/A   Clear
9:55 AM 53.6 °F - 42.8 °F 67% 30.13 in 10.0 mi SE 6.9 mph - N/A   Clear
10:15 AM 55.4 °F - 41.0 °F 58% 30.13 in 10.0 mi ESE 9.2 mph - N/A   Clear
10:35 AM 59.0 °F - 41.0 °F 51% 30.13 in 10.0 mi SE 9.2 mph - N/A   Clear
10:55 AM 59.0 °F - 41.0 °F 51% 30.12 in 10.0 mi SSE 12.7 mph - N/A   Clear
11:15 AM 60.8 °F - 41.0 °F 48% 30.12 in 10.0 mi SE 12.7 mph - N/A   Clear
11:35 AM 60.8 °F - 41.0 °F 48% 30.12 in 10.0 mi SSE 11.5 mph - N/A   Clear
11:55 AM 62.6 °F - 41.0 °F 45% 30.11 in 10.0 mi SE 9.2 mph - N/A   Clear
12:15 PM 64.4 °F - 41.0 °F 42% 30.11 in 10.0 mi SE 10.4 mph - N/A   Clear
12:35 PM 64.4 °F - 41.0 °F 42% 30.11 in 10.0 mi SSE 9.2 mph - N/A   Clear
12:55 PM 68.0 °F - 41.0 °F 37% 30.10 in 10.0 mi South 9.2 mph - N/A   Clear
1:15 PM 68.0 °F - 41.0 °F 37% 30.09 in 10.0 mi SSW 10.4 mph - N/A   Clear
1:35 PM 69.8 °F - 41.0 °F 35% 30.08 in 10.0 mi South 8.1 mph - N/A   Clear
1:55 PM 71.6 °F - 39.2 °F 31% 30.07 in 10.0 mi SSW 10.4 mph - N/A   Clear
2:15 PM 71.6 °F - 39.2 °F 31% 30.05 in 10.0 mi South 9.2 mph - N/A   Clear
2:35 PM 73.4 °F - 37.4 °F 27% 30.04 in 10.0 mi South 9.2 mph - N/A   Clear
2:55 PM 73.4 °F - 35.6 °F 25% 30.03 in 10.0 mi SSW 9.2 mph - N/A   Clear
3:15 PM 75.2 °F - 37.4 °F 25% 30.02 in 10.0 mi SSW 11.5 mph - N/A   Clear
3:35 PM 77.0 °F - 35.6 °F 22% 30.01 in 10.0 mi South 10.4 mph - N/A   Clear
3:55 PM 78.8 °F - 33.8 °F 20% 30.00 in 10.0 mi SSW 12.7 mph 18.4 mph N/A   Clear
4:15 PM 78.8 °F - 32.0 °F 18% 30.00 in 10.0 mi SW 12.7 mph - N/A   Clear
4:35 PM 80.6 °F - 32.0 °F 17% 29.99 in 10.0 mi SSW 11.5 mph - N/A   Clear
4:55 PM 80.6 °F - 26.6 °F 14% 29.98 in 10.0 mi WSW 16.1 mph 21.9 mph N/A   Clear
5:15 PM 82.4 °F - 24.8 °F 12% 29.97 in 10.0 mi SW 18.4 mph 24.2 mph N/A   Clear
5:35 PM 80.6 °F - 26.6 °F 14% 29.97 in 10.0 mi SW 15.0 mph 20.7 mph N/A   Clear
5:55 PM 80.6 °F - 26.6 °F 14% 29.97 in 10.0 mi SSW 16.1 mph 24.2 mph N/A   Clear
6:15 PM 78.8 °F - 28.4 °F 16% 29.97 in 10.0 mi SW 13.8 mph - N/A   Clear
6:35 PM 77.0 °F - 28.4 °F 17% 29.96 in 10.0 mi SSW 12.7 mph - N/A   Clear
6:55 PM 75.2 °F - 30.2 °F 19% 29.97 in 10.0 mi SSW 10.4 mph - N/A   Clear
7:15 PM 71.6 °F - 30.2 °F 22% 29.97 in 10.0 mi SSW 9.2 mph - N/A   Clear
7:35 PM 69.8 °F - 30.2 °F 23% 29.98 in 10.0 mi SSW 8.1 mph - N/A   Scattered Clouds
7:55 PM 68.0 °F - 32.0 °F 26% 30.00 in 10.0 mi NW 10.4 mph 20.7 mph N/A   Scattered Clouds
8:15 PM 71.6 °F - 28.4 °F 20% 30.01 in 10.0 mi WSW 5.8 mph - N/A   Clear
8:35 PM 68.0 °F - 35.6 °F 30% 30.02 in 10.0 mi NNE 17.3 mph 24.2 mph N/A   Clear
8:55 PM 64.4 °F - 42.8 °F 45% 30.04 in 10.0 mi North 12.7 mph - N/A   Clear
9:15 PM 62.6 °F - 44.6 °F 52% 30.05 in 10.0 mi NE 11.5 mph - N/A   Scattered Clouds
9:35 PM 60.8 °F - 44.6 °F 55% 30.05 in 10.0 mi NNE 11.5 mph - N/A   Scattered Clouds
9:55 PM 60.8 °F - 44.6 °F 55% 30.06 in 10.0 mi NNE 10.4 mph - N/A   Scattered Clouds
10:15 PM 59.0 °F - 44.6 °F 59% 30.07 in 10.0 mi NNE 12.7 mph - N/A   Scattered Clouds
10:35 PM 57.2 °F - 44.6 °F 63% 30.08 in 10.0 mi NNE 10.4 mph - N/A   Mostly Cloudy
10:55 PM 55.4 °F - 44.6 °F 67% 30.09 in 10.0 mi NNE 10.4 mph - N/A   Mostly Cloudy
11:15 PM 55.4 °F - 44.6 °F 67% 30.10 in 10.0 mi NNE 10.4 mph - N/A   Mostly Cloudy
11:35 PM 55.4 °F - 44.6 °F 67% 30.10 in 10.0 mi NNE 9.2 mph - N/A   Mostly Cloudy
11:55 PM 53.6 °F - 44.6 °F 72% 30.11 in 10.0 mi NNE 9.2 mph - N/A   Mostly Cloudy